Погода в Куземине

Россия / Костромская область     59°13′31″N   42°30′30″E
темп.,
°C
ветер,
м/с
пор.,
м/с
влажн.,
%
обл.,
%
осадки,
мм/ч
давл.,
гПа
погр.,
м
14 мая, пт
пт1400:00+14ююв31093100 0.4 1016438
03:00+13юз399623 0.6 1017469
06:00+13ююз389183 0.0 1018333
09:00+17юз37665 0.0 1018851
12:00+20юз47475 0.0 10181802
15:00+21юз4641100 0.0 10182200
18:00+19зюз245517 0.0 1017394
21:00+14ю117525 0.0 101711
15 мая, сб
сб1500:00+12ююв2284100 0.0 101621
03:00+13ю2690100 0.4 1016157
06:00+13вюв289399 1.9 1015237
09:00+18юв3779100 3.3 1013552
12:00+23ююз465593 0.0 10121221
15:00+24ю3552100 0.0 10101329
18:00+13сз4997100 23.6 1011304
21:00+14юв4109650 23.9 1009300
16 мая, вс
вс1600:00+14ю413960 0.0 1008469
03:00+14ю4129719 0.0 1008469
06:00+14ююз4119548 0.0 1009617
09:00+17ююз59746 0.0 1009949
12:00+20ююз696063 0.1 10091674
15:00+18юз5107810 2.2 10101114
18:00+17юз498224 0.9 1009834
21:00+14ююз3109375 5.4 1010327
17 мая, пн
пн1700:00+13ююз3996100 0.4 1011322
03:00+12ююз299827 0.4 1011249
06:00+13юз379665 0.0 1012322
09:00+17зюз368358 0.0 1014630
12:00+21зюз466045 0.3 10141534
15:00+19юз4868100 0.4 1015534
18:00+20зюз246842 0.1 1015246
21:00+15св1190100 0.1 101611
18 мая, вт
вт1800:00+14в119339 0.0 101610
03:00+13в229593 0.0 101629
06:00+15вюв268799 0.0 1016164
09:00+21вюв4666100 0.0 1015581
12:00+25юв465020 0.0 10151283
15:00+27юв464065 0.0 10142048
18:00+24юв3858100 0.0 1012263
21:00+18юв38756 0.0 1012123